Weather History for KPWT - March, 2014

Change the Weather History Date:

Friday, March 14, 2014

  Actual Average (KSEA) Record (KSEA)
Temperature  
Mean Temperature 47 °F 46 °F  
Max Temperature 50 °F 53 °F 64 °F (1996)
Min Temperature 44 °F 39 °F 26 °F (1953)
Degree Days  
Heating Degree Days 18 19  
Month to date heating degree days 274  
Since 1 July heating degree days 3528  
Cooling Degree Days 0 0  
Month to date cooling degree days 0  
Year to date cooling degree days 0  
Moisture  
Dew Point 38 °F    
Average Humidity 82    
Maximum Humidity 100    
Minimum Humidity 15    
Precipitation  
Precipitation 0.64 in 0.13 in 0.76 in (1984)
Month to date precipitation 1.75  
Year to date precipitation 10.82  
Snow  
Snow 0.00 in - 0.20 in (1977)
Month to date snowfall  
Since 1 July snowfall  
Snow Depth -    
Sea Level Pressure  
Sea Level Pressure 30.10 in    
Wind  
Wind Speed 14 mph (SSW)    
Max Wind Speed 25 mph    
Max Gust Speed 34 mph    
Visibility 10 miles    
Events      
T = Trace of Precipitation, MM = Missing Value Source: NWS Daily Summary

Daily Weather History Graph

Daily Weather History Graph

Search for Another Location

Airport or City:

Trip Planner

Search our weather history database for the weather conditions in past years. The results will help you decide how hot, cold, wet, or windy it might be!

Date:

Astronomy

Mar. 14, 2014 Rise Set
Actual Time 7:25 AM PDT 7:15 PM PDT
Civil Twilight 6:55 AM PDT 7:45 PM PDT
Nautical Twilight 6:19 AM PDT 8:21 PM PDT
Astronomical Twilight 5:43 AM PDT 8:58 PM PDT
Moon 5:38 PM PDT (3/14) 6:14 AM PDT (3/14)
Length of Visible Light 12h 50m
Length of Day
11h 49m
Waxing Gibbous, 96% of the Moon is Illuminated
Mar 14
Waxing Gibbous
Mar 16
Full
Mar 23
Last Quarter
Mar 30
New
Apr 7
First Quarter

Hourly Weather History & Observations

Time (PDT) Temp. Windchill Dew Point Humidity Pressure Visibility Wind Dir Wind Speed Gust Speed Precip Events Conditions
12:15 AM 44.6 °F 39.2 °F 44.6 °F 100% 30.02 in 6.0 mi South 10.4 mph - 0.01 in   Overcast
12:35 AM 46.4 °F 41.9 °F 46.4 °F 100% 30.03 in 7.0 mi South 9.2 mph - 0.02 in   Overcast
12:55 AM 46.4 °F 41.5 °F - N/A% 30.01 in 7.0 mi South 10.4 mph - 0.03 in   Overcast
1:15 AM 44.6 °F 39.2 °F - N/A% 30.01 in 10.0 mi South 10.4 mph - 0.01 in   Overcast
1:35 AM 46.4 °F 41.5 °F 46.4 °F 100% 30.00 in 10.0 mi South 10.4 mph - 0.02 in   Overcast
1:55 AM 46.4 °F 42.4 °F 46.4 °F 100% 29.98 in 10.0 mi South 8.1 mph - 0.02 in   Overcast
2:15 AM 48.2 °F - 48.2 °F 100% 29.98 in 8.0 mi South 10.4 mph 16.1 mph 0.02 in   Overcast
2:35 AM 48.2 °F - - N/A% 29.97 in 8.0 mi South 12.7 mph - 0.03 in   Overcast
2:55 AM 44.6 °F 38.1 °F - N/A% 29.96 in 7.0 mi South 13.8 mph 19.6 mph 0.05 in   Overcast
3:15 AM 48.2 °F - 48.2 °F 100% 29.96 in 8.0 mi South 15.0 mph - 0.02 in   Overcast
3:35 AM 48.2 °F - 48.2 °F 100% 29.94 in 10.0 mi South 10.4 mph 20.7 mph 0.04 in   Overcast
3:55 AM 48.2 °F - - N/A% 29.94 in 10.0 mi South 12.7 mph 20.7 mph 0.07 in   Overcast
4:15 AM 48.2 °F - 48.2 °F 100% 29.94 in 10.0 mi South 15.0 mph 20.7 mph 0.02 in   Overcast
4:35 AM 48.2 °F - 48.2 °F 100% 29.93 in 10.0 mi South 15.0 mph 21.9 mph 0.07 in   Overcast
4:55 AM 48.2 °F - - N/A% 29.93 in 10.0 mi South 11.5 mph - 0.10 in   Overcast
5:15 AM 48.2 °F - 48.2 °F 100% 29.93 in 10.0 mi South 11.5 mph 19.6 mph 0.06 in   Overcast
5:35 AM 48.2 °F - - N/A% 29.92 in 10.0 mi South 13.8 mph 18.4 mph 0.13 in   Overcast
5:55 AM 48.2 °F - 48.2 °F 100% 29.93 in 8.0 mi South 15.0 mph - 0.16 in   Overcast
6:15 AM 48.2 °F - 48.2 °F 100% 29.92 in 7.0 mi South 13.8 mph 19.6 mph 0.02 in   Overcast
6:35 AM 48.2 °F - 48.2 °F 100% 29.93 in 6.0 mi South 13.8 mph 17.3 mph 0.06 in   Overcast
6:55 AM 48.2 °F - 48.2 °F 100% 29.93 in 7.0 mi South 10.4 mph 18.4 mph 0.09 in   Overcast
7:15 AM 48.2 °F - 48.2 °F 100% 29.92 in 7.0 mi South 12.7 mph 18.4 mph 0.05 in   Overcast
7:35 AM 48.2 °F - 48.2 °F 100% 29.93 in 7.0 mi South 11.5 mph - 0.12 in   Overcast
7:55 AM 50.0 °F - 50.0 °F 100% 29.94 in 10.0 mi South 17.3 mph 25.3 mph 0.12 in   Overcast
8:15 AM 48.2 °F - 24.8 °F 40% 29.92 in 10.0 mi South 9.2 mph - N/A   Overcast
8:35 AM 48.2 °F - 3.2 °F 16% 29.94 in 10.0 mi South 13.8 mph 23.0 mph N/A   Mostly Cloudy
8:55 AM 48.2 °F - 1.4 °F 15% 29.95 in 10.0 mi South 15.0 mph 24.2 mph N/A   Mostly Cloudy
9:15 AM 48.2 °F - 1.4 °F 15% 29.96 in 9.0 mi South 15.0 mph 19.6 mph N/A   Partly Cloudy
9:35 AM 48.2 °F - 1.4 °F 15% 29.98 in 10.0 mi SSW 13.8 mph - N/A   Partly Cloudy
9:55 AM - - - N/A% 30.00 in 10.0 mi SSW 17.3 mph - N/A   Clear
10:15 AM - - - N/A% 30.02 in 10.0 mi SSW 17.3 mph 21.9 mph N/A   Clear
10:35 AM - - - N/A% 30.04 in 10.0 mi SSW 19.6 mph 23.0 mph N/A   Clear
10:55 AM - - - N/A% 30.05 in 10.0 mi SSW 21.9 mph 27.6 mph N/A   Clear
11:15 AM - - - N/A% 30.05 in 10.0 mi SSW 21.9 mph 28.8 mph N/A   Clear
11:35 AM - - - N/A% 30.08 in 10.0 mi SSW 19.6 mph 27.6 mph N/A   Clear
11:55 AM - - - N/A% 30.08 in 10.0 mi SSW 18.4 mph 29.9 mph N/A   Clear
12:15 PM - - - N/A% 30.10 in 10.0 mi SSW 24.2 mph 28.8 mph N/A   Clear
12:35 PM - - - N/A% 30.10 in 10.0 mi South 20.7 mph 27.6 mph N/A   Clear
12:55 PM - - - N/A% 30.11 in 10.0 mi South 21.9 mph 34.5 mph N/A   Clear
1:15 PM - - - N/A% 30.12 in 10.0 mi SSW 23.0 mph 27.6 mph N/A   Clear
1:35 PM - - - N/A% 30.12 in 10.0 mi SSW 25.3 mph 32.2 mph N/A   Clear
1:55 PM - - - N/A% 30.12 in 10.0 mi SSW 23.0 mph 27.6 mph N/A   Clear
2:15 PM - - - N/A% 30.12 in 10.0 mi SW 20.7 mph 31.1 mph N/A   Clear
2:35 PM - - - N/A% 30.12 in 10.0 mi SSW 25.3 mph 32.2 mph N/A   Clear
2:55 PM - - - N/A% 30.13 in 10.0 mi SSW 17.3 mph 27.6 mph N/A   Clear
3:15 PM - - - N/A% 30.14 in 10.0 mi SW 18.4 mph 29.9 mph N/A   Clear
3:35 PM - - - N/A% 30.15 in 9.0 mi SW 19.6 mph 27.6 mph N/A   Clear
3:55 PM - - - N/A% 30.15 in 10.0 mi SW 20.7 mph 32.2 mph N/A   Clear
4:15 PM - - - N/A% 30.16 in 10.0 mi SSW 15.0 mph 25.3 mph N/A   Clear
4:35 PM - - - N/A% 30.18 in 10.0 mi SW 17.3 mph 25.3 mph N/A   Clear
4:55 PM - - - N/A% 30.19 in 10.0 mi SSW 20.7 mph 24.2 mph N/A   Clear
5:15 PM - - - N/A% 30.21 in 10.0 mi SSW 19.6 mph 25.3 mph N/A   Clear
5:35 PM - - - N/A% 30.22 in 10.0 mi SSW 16.1 mph 23.0 mph N/A   Clear
5:55 PM - - - N/A% 30.23 in 10.0 mi SSW 18.4 mph 25.3 mph N/A   Clear
6:15 PM - - - N/A% 30.23 in 10.0 mi SSW 17.3 mph - N/A   Clear
6:35 PM - - - N/A% 30.25 in 10.0 mi SSW 19.6 mph - N/A   Clear
6:55 PM - - - N/A% 30.25 in 10.0 mi SSW 16.1 mph 20.7 mph N/A   Clear
7:15 PM - - - N/A% 30.26 in 10.0 mi SSW 15.0 mph 18.4 mph N/A   Clear
7:35 PM - - - N/A% 30.27 in 10.0 mi South 11.5 mph - N/A   Clear
7:55 PM - - - N/A% 30.29 in 10.0 mi South 10.4 mph - N/A   Clear
8:15 PM - - - N/A% 30.31 in 10.0 mi South 11.5 mph - N/A   Clear
8:35 PM - - - N/A% 30.30 in 10.0 mi South 10.4 mph - N/A   Clear
8:55 PM - - - N/A% 30.31 in 10.0 mi South 10.4 mph - N/A   Clear
9:15 PM - - - N/A% 30.33 in 10.0 mi SSW 11.5 mph 17.3 mph N/A   Clear
9:35 PM - - - N/A% 30.32 in 10.0 mi South 8.1 mph - N/A   Clear
9:55 PM - - - N/A% 30.34 in 10.0 mi South 6.9 mph - N/A   Clear
10:15 PM - - - N/A% 30.34 in 10.0 mi South 5.8 mph - N/A   Clear
10:35 PM - - - N/A% 30.35 in 10.0 mi SSW 8.1 mph - N/A   Clear
10:55 PM - - - N/A% 30.35 in 10.0 mi South 6.9 mph - N/A   Clear
11:15 PM - - - N/A% 30.35 in 10.0 mi South 6.9 mph - N/A   Clear
11:35 PM - - - N/A% 30.36 in 10.0 mi SSW 8.1 mph - N/A   Clear
11:55 PM - - - N/A% 30.34 in 10.0 mi SSW 8.1 mph - N/A   Clear